Epoch 2015 Aug. 6.0 TT = JDT 2457240.5
T 2015 Aug. 7.31049 TT MPCW
q 0.9770095 (2000.0) P Q
n 0.18082521 Peri. 0.74273 +0.44915382 +0.89014742
a 3.0971582 Node 295.94941 -0.82016821 +0.37669043
e 0.6845465 Incl. 4.89974 -0.35437968 +0.25640181
P 5.45
From 102 observations 2004 Sept. 2-2015 Oct. 10, mean residual 0".5.